| time (UTC) | temp F | wind direction | speed MPH | gust MPH | rain 1hr in | rain 24hr in | rain mn in | humidity % | barometer mb |
| 20260502222955 | 95 | 110 | 13.0 | 0.0 | 0.00 | 0.00 | 0.00 | 41 | 1006.0 |
| 20260502221955 | 91 | 111 | 4.0 | 8.0 | 0.00 | 0.00 | 0.00 | 41 | 1006.0 |
| 20260502220955 | 91 | 120 | 15.0 | 0.0 | 0.00 | 0.00 | 0.00 | 41 | 1006.0 |
| 20260502215954 | 92 | 120 | 15.0 | 0.0 | 0.00 | 0.00 | 0.00 | 41 | 1006.0 |
| 20260502214954 | 92 | 120 | 15.0 | 0.0 | 0.00 | 0.00 | 0.00 | 41 | 1006.0 |
| 20260502213954 | 93 | 120 | 16.0 | 0.0 | 0.00 | 0.00 | 0.00 | 40 | 1006.0 |
| 20260502212954 | 92 | 120 | 15.0 | 0.0 | 0.00 | 0.00 | 0.00 | 41 | 1007.0 |
| 20260502211953 | 93 | 120 | 16.0 | 0.0 | 0.00 | 0.00 | 0.00 | 40 | 1007.0 |
| 20260502210953 | 92 | 120 | 11.0 | 0.0 | 0.00 | 0.00 | 0.00 | 41 | 1007.0 |
| 20260502205953 | 93 | 120 | 11.0 | 0.0 | 0.00 | 0.00 | 0.00 | 41 | 1007.0 |
| 20260502204952 | 93 | 120 | 11.0 | 0.0 | 0.00 | 0.00 | 0.00 | 41 | 1007.0 |
| 20260502203952 | 93 | 120 | 11.0 | 0.0 | 0.00 | 0.00 | 0.00 | 41 | 1007.0 |
| 20260502202952 | 94 | 120 | 11.0 | 0.0 | 0.00 | 0.00 | 0.00 | 41 | 1008.0 |
| 20260502201951 | 94 | 80 | 4.0 | 0.0 | 0.00 | 0.00 | 0.00 | 41 | 1008.0 |
| 20260502200951 | 94 | 80 | 4.0 | 0.0 | 0.00 | 0.00 | 0.00 | 41 | 1008.0 |
| 20260502195951 | 94 | 80 | 4.0 | 0.0 | 0.00 | 0.00 | 0.00 | 41 | 1008.0 |
| 20260502194950 | 94 | 80 | 4.0 | 0.0 | 0.00 | 0.00 | 0.00 | 41 | 1008.0 |
| 20260502193950 | 95 | 80 | 4.0 | 0.0 | 0.00 | 0.00 | 0.00 | 41 | 1008.0 |
| 20260502192950 | 89 | 100 | 5.0 | 0.0 | 0.00 | 0.00 | 0.00 | 45 | 1009.0 |
| 20260502191949 | 90 | 100 | 5.0 | 0.0 | 0.00 | 0.00 | 0.00 | 45 | 1009.0 |
| 20260502190949 | 91 | 100 | 5.0 | 0.0 | 0.00 | 0.00 | 0.00 | 45 | 1009.0 |
| 20260502185949 | 92 | 100 | 6.0 | 0.0 | 0.00 | 0.00 | 0.00 | 44 | 1009.0 |
| 20260502184949 | 93 | 100 | 6.0 | 0.0 | 0.00 | 0.00 | 0.00 | 44 | 1009.0 |
| 20260502183948 | 93 | 100 | 6.0 | 0.0 | 0.00 | 0.00 | 0.00 | 43 | 1009.0 |
| 20260502182948 | 87 | 50 | 4.0 | 0.0 | 0.00 | 0.00 | 0.00 | 50 | 1010.0 |
| 20260502181947 | 88 | 50 | 4.0 | 0.0 | 0.00 | 0.00 | 0.00 | 50 | 1010.0 |
| 20260502180947 | 89 | 50 | 4.0 | 0.0 | 0.00 | 0.00 | 0.00 | 50 | 1010.0 |
| 20260502163944 | 89 | 30 | 4.0 | 0.0 | 0.00 | 0.00 | 0.00 | 55 | 1011.0 |
| 20260502162944 | 90 | 30 | 4.0 | 0.0 | 0.00 | 0.00 | 0.00 | 56 | 1012.0 |
| 20260502161943 | 84 | 70 | 5.0 | 0.0 | 0.00 | 0.00 | 0.00 | 63 | 1012.0 |
| 20260502160943 | 85 | 70 | 5.0 | 0.0 | 0.00 | 0.00 | 0.00 | 62 | 1012.0 |
| 20260502151941 | 84 | 81 | 6.0 | 7.0 | 0.00 | 0.00 | 0.00 | 70 | 1012.0 |
| 20260502150941 | 81 | 90 | 8.0 | 0.0 | 0.00 | 0.00 | 0.00 | 70 | 1012.0 |
| 20260502122937 | 78 | 120 | 4.0 | 0.0 | 0.00 | 0.00 | 0.00 | 84 | 1011.0 |
| 20260502121936 | 78 | 120 | 4.0 | 0.0 | 0.00 | 0.00 | 0.00 | 84 | 1011.0 |
| 20260502120936 | 75 | 108 | 5.0 | 8.0 | 0.00 | 0.00 | 0.00 | 88 | 1011.0 |
| 20260502114935 | 76 | 108 | 5.0 | 8.0 | 0.00 | 0.00 | 0.00 | 88 | 1011.0 |
| 20260502113935 | 76 | 108 | 5.0 | 8.0 | 0.00 | 0.00 | 0.00 | 88 | 1011.0 |
| 20260502112935 | 76 | 108 | 5.0 | 8.0 | 0.00 | 0.00 | 0.00 | 88 | 1010.0 |
| 20260502111934 | 76 | 108 | 5.0 | 8.0 | 0.00 | 0.00 | 0.00 | 88 | 1010.0 |
| 20260502110934 | 76 | 108 | 5.0 | 8.0 | 0.00 | 0.00 | 0.00 | 88 | 1010.0 |
| 20260502105934 | 76 | 108 | 5.0 | 8.0 | 0.00 | 0.00 | 0.00 | 88 | 1010.0 |
| 20260502104934 | 76 | 108 | 5.0 | 8.0 | 0.00 | 0.00 | 0.00 | 88 | 1010.0 |
| 20260502103933 | 76 | 108 | 5.0 | 8.0 | 0.00 | 0.00 | 0.00 | 88 | 1010.0 |
| 20260502102933 | 77 | 108 | 6.0 | 9.0 | 0.00 | 0.00 | 0.00 | 87 | 1010.0 |
| 20260502101932 | 75 | 80 | 4.0 | 0.0 | 0.00 | 0.00 | 0.00 | 88 | 1010.0 |
| 20260502100932 | 76 | 80 | 4.0 | 0.0 | 0.00 | 0.00 | 0.00 | 88 | 1010.0 |
| 20260502090931 | 76 | 90 | 4.0 | 0.0 | 0.00 | 0.00 | 0.00 | 84 | 1010.0 |
| 20260502070927 | 79 | 120 | 8.0 | 0.0 | 0.00 | 0.00 | 0.00 | 81 | 1010.0 |
| 20260502065926 | 80 | 120 | 9.0 | 0.0 | 0.00 | 0.00 | 0.00 | 81 | 1010.0 |
| 20260502064926 | 80 | 120 | 9.0 | 0.0 | 0.00 | 0.00 | 0.00 | 80 | 1010.0 |
| 20260502063926 | 81 | 120 | 9.0 | 0.0 | 0.00 | 0.00 | 0.00 | 79 | 1010.0 |
| 20260502062925 | 77 | 118 | 7.0 | 13.0 | 0.00 | 0.00 | 0.00 | 79 | 1010.0 |
| 20260502061925 | 78 | 118 | 7.0 | 13.0 | 0.00 | 0.00 | 0.00 | 79 | 1010.0 |
| 20260502060924 | 78 | 118 | 7.0 | 13.0 | 0.00 | 0.00 | 0.00 | 79 | 1010.0 |
| 20260502055924 | 79 | 118 | 7.0 | 13.0 | 0.00 | 0.00 | 0.00 | 79 | 1010.0 |
| 20260502054924 | 79 | 118 | 7.0 | 13.0 | 0.00 | 0.00 | 0.00 | 78 | 1010.0 |
| 20260502053924 | 80 | 118 | 7.0 | 13.0 | 0.00 | 0.00 | 0.00 | 76 | 1011.0 |
| 20260502052923 | 78 | 113 | 9.0 | 16.0 | 0.00 | 0.00 | 0.00 | 77 | 1011.0 |
| 20260502051923 | 77 | 113 | 9.0 | 16.0 | 0.00 | 0.00 | 0.00 | 77 | 1011.0 |
| 20260502050923 | 78 | 140 | 8.0 | 0.0 | 0.00 | 0.00 | 0.00 | 77 | 1011.0 |
| 20260502045923 | 79 | 140 | 9.0 | 0.0 | 0.00 | 0.00 | 0.00 | 77 | 1011.0 |
| 20260502044922 | 79 | 140 | 9.0 | 0.0 | 0.00 | 0.00 | 0.00 | 77 | 1011.0 |
| 20260502043922 | 80 | 140 | 9.0 | 0.0 | 0.00 | 0.00 | 0.00 | 76 | 1011.0 |
| 20260502042922 | 81 | 140 | 9.0 | 0.0 | 0.00 | 0.00 | 0.00 | 75 | 1010.0 |
| 20260502041921 | 81 | 140 | 9.0 | 0.0 | 0.00 | 0.00 | 0.00 | 75 | 1010.0 |
| 20260502040921 | 79 | 100 | 7.0 | 15.0 | 0.00 | 0.00 | 0.00 | 73 | 1010.0 |
| 20260502035921 | 80 | 140 | 9.0 | 0.0 | 0.00 | 0.00 | 0.00 | 74 | 1010.0 |
| 20260502034921 | 81 | 140 | 9.0 | 0.0 | 0.00 | 0.00 | 0.00 | 74 | 1010.0 |
| 20260502033920 | 81 | 140 | 9.0 | 0.0 | 0.00 | 0.00 | 0.00 | 74 | 1010.0 |
| 20260502032920 | 80 | 140 | 9.0 | 0.0 | 0.00 | 0.00 | 0.00 | 74 | 1010.0 |
| 20260502031919 | 81 | 140 | 9.0 | 0.0 | 0.00 | 0.00 | 0.00 | 74 | 1010.0 |
| 20260502030919 | 82 | 140 | 4.0 | 0.0 | 0.00 | 0.00 | 0.00 | 74 | 1010.0 |
| 20260502025919 | 82 | 140 | 4.0 | 0.0 | 0.00 | 0.00 | 0.00 | 74 | 1010.0 |
| 20260502024918 | 81 | 140 | 4.0 | 0.0 | 0.00 | 0.00 | 0.00 | 75 | 1010.0 |
| 20260502023918 | 82 | 140 | 4.0 | 0.0 | 0.00 | 0.00 | 0.00 | 76 | 1010.0 |
| 20260502022918 | 82 | 140 | 4.0 | 0.0 | 0.00 | 0.00 | 0.00 | 76 | 1009.0 |
| 20260502021917 | 82 | 140 | 4.0 | 0.0 | 0.00 | 0.00 | 0.00 | 76 | 1009.0 |
| 20260502020917 | 81 | 144 | 5.0 | 12.0 | 0.00 | 0.00 | 0.00 | 75 | 1009.0 |
| 20260502015917 | 82 | 200 | 9.0 | 0.0 | 0.00 | 0.00 | 0.00 | 77 | 1009.0 |
| 20260502014916 | 83 | 200 | 9.0 | 0.0 | 0.00 | 0.00 | 0.00 | 76 | 1009.0 |
| 20260502013916 | 82 | 200 | 9.0 | 0.0 | 0.00 | 0.00 | 0.00 | 76 | 1008.0 |
| 20260502012915 | 83 | 200 | 9.0 | 0.0 | 0.00 | 0.00 | 0.00 | 74 | 1007.0 |
| 20260502011915 | 83 | 200 | 9.0 | 0.0 | 0.00 | 0.00 | 0.00 | 74 | 1007.0 |
| 20260502010915 | 83 | 140 | 11.0 | 0.0 | 0.00 | 0.00 | 0.00 | 70 | 1007.0 |
| 20260502005915 | 84 | 140 | 11.0 | 0.0 | 0.00 | 0.00 | 0.00 | 70 | 1007.0 |
| 20260502004915 | 85 | 140 | 11.0 | 0.0 | 0.00 | 0.00 | 0.00 | 70 | 1007.0 |
| 20260502003914 | 85 | 140 | 11.0 | 0.0 | 0.00 | 0.00 | 0.00 | 70 | 1007.0 |
| 20260502002914 | 85 | 140 | 11.0 | 0.0 | 0.00 | 0.00 | 0.00 | 69 | 1007.0 |
| 20260502001913 | 85 | 140 | 11.0 | 0.0 | 0.00 | 0.00 | 0.00 | 65 | 1007.0 |
| 20260502000913 | 85 | 129 | 5.0 | 9.0 | 0.00 | 0.00 | 0.00 | 62 | 1007.0 |
| 20260501235913 | 85 | 100 | 11.0 | 0.0 | 0.00 | 0.00 | 0.00 | 65 | 1007.0 |
| 20260501234912 | 85 | 100 | 11.0 | 0.0 | 0.00 | 0.00 | 0.00 | 64 | 1007.0 |
| 20260501233912 | 86 | 100 | 11.0 | 0.0 | 0.00 | 0.00 | 0.00 | 64 | 1007.0 |
| 20260501232912 | 87 | 100 | 11.0 | 0.0 | 0.00 | 0.00 | 0.00 | 66 | 1006.0 |
| 20260501231911 | 86 | 110 | 20.0 | 0.0 | 0.00 | 0.00 | 0.00 | 55 | 1006.0 |
| 20260501230911 | 87 | 110 | 20.0 | 0.0 | 0.00 | 0.00 | 0.00 | 50 | 1006.0 |
| 20260501225911 | 88 | 110 | 20.0 | 0.0 | 0.00 | 0.00 | 0.00 | 50 | 1006.0 |
| 20260501224910 | 88 | 110 | 20.0 | 0.0 | 0.00 | 0.00 | 0.00 | 50 | 1006.0 |
| 20260501223910 | 88 | 110 | 20.0 | 0.0 | 0.00 | 0.00 | 0.00 | 49 | 1006.0 |